User: anonymous   Login
Location: Brno
(49.2000°N, 16.6330°E)
Time: 10:38:00
(UTC+02:00)
Language:

NOSS 3-4 (A) - Orbit

View from above orbital plane
View from above orbital plane
View from above satellite
View from above satellite

Ground track
Ground track

The orbit data is extracted from the following two-line orbital elements,

1 31701U 07027A   17110.13984012 0.00000000  00000-0  00000-0 0    09
2 31701  63.4029 231.3828 0186000  25.3122 334.6877 13.40729408    01
Epoch (UTC): 20 April 2017 03:21:22
Eccentricity: 0.0186000
inclination: 63.4029°
perigee height: 967 km
apogee height: 1246 km
right ascension of ascending node: 231.3828°
argument of perigee: 25.3122°
revolutions per day: 13.40729408
mean anomaly at epoch: 334.6877°
orbit number at epoch: 0

The dashed part of the orbit path shows where the satellite is in the earth's shadow,  

DLR